Regional Weather Roundup
Issued by NWS

Home | Current Version | Previous Version | Graphics & Text | Print | Product List | Glossary On
Versions: 1 2 3 4 5 6 7 8 9 10 11 12 13 14 15 16 17 18 19 20 21 22 23 24 25 26 27 28 29 30 31 32 33 34 35 36 37 38 39 40 41 42 43 44 45 46 47 48 49 50
000
ASUS45 KBOU 090110
RWRCO

WEATHER ROUNDUP FOR COLORADO
NATIONAL WEATHER SERVICE DENVER/BOULDER CO
700 PM MDT TUE JUL 08 2014

NOTE: "FAIR" INDICATES FEW OR NO CLOUDS BELOW 12000 FEET WITH NO
SIGNIFICANT WEATHER AND/OR OBSTRUCTIONS TO VISIBILITY.

COZ001>005-013-030-031-090200-
...NORTHWEST COLORADO...

CITY           SKY/WX    TMP DP  RH WIND       PRES   REMARKS
CRAIG          MOSUNNY   84  35  17 N6        30.11F
HAYDEN         SUNNY     86  32  14 N6        30.15S
MEEKER         MOSUNNY   86  27  11 N9G20     30.14S
MOUNT WERNER   SUNNY     72   5   7 NW9G16    30.52F
STEAMBOAT SPGS SUNNY     85  32  15 W7        30.18S
WALDEN         SUNNY     73  36  25 NE16G24   30.30S
$$

COZ006>008-011-090200-
...WEST CENTRAL VALLEYS...

CITY           SKY/WX    TMP DP  RH WIND       PRES   REMARKS
GRAND JUNCTION PTSUNNY   90  34  13 NE32G40   30.00F
MONTROSE       PTSUNNY   86  41  20 W8        30.12R
EAGLE          MOSUNNY   75  52  43 E8        30.16R
RIFLE          PTSUNNY   91  32  12 W20       30.05R
DELTA          PTSUNNY   91  37  15 S16G24    30.05S
NUCLA          PTSUNNY   86  36  16 E7        30.18F
$$

COZ017>023-064>068-090200-
...SOUTHWEST COLORADO...

CITY           SKY/WX    TMP DP  RH WIND       PRES   REMARKS
DURANGO        LGT RAIN  63  54  72 S23G39    30.29R
CORTEZ         MOSUNNY   79  53  40 E7        30.15R
PAGOSA SPRINGS CLOUDY    68  43  39 S12G17    30.40R
TELLURIDE      PTSUNNY   63  46  55 CALM      30.43F
WOLF CREEK PAS NOT AVBL
$$

COZ009-010-012-014-032>034-037-058>063-090200-
...CENTRAL COLORADO...

CITY           SKY/WX    TMP DP  RH WIND       PRES   REMARKS
ASPEN          PTSUNNY   82  33  17 NW13G24   30.24R
BUENA VISTA    LGT RAIN  67  48  51 S14G22    30.38R
COPPER MTN     PTSUNNY   64  32  29 W13G18    30.64S
BERTHOUD PASS  PTSUNNY   46  32  57 MISG      30.69S
COTTONWOOD PAS CLOUDY    64  39  39 SE17G24   30.51R
GUNNISON       NOT AVBL
KREMMLING      SUNNY     82  25  12 NW6       30.22S
LEADVILLE      PTSUNNY   63  36  36 SE10G26   30.45R
MONARCH PASS   CLOUDY    48  43  81 NE17      30.75R
SALIDA         CLOUDY    68  48  49 SE17G33   30.40F
SUNLIGHT       PTSUNNY   64  39  39 CALM      30.54S
WILKERSON PASS CLOUDY    46  41  81 S13       30.64R
$$

COZ069>075-090200-
...SAN LUIS VALLEY/SANGRE DE CRISTO MOUNTAINS...

CITY           SKY/WX    TMP DP  RH WIND       PRES   REMARKS
ALAMOSA        PTSUNNY   67  43  41 S16G24    30.36R
LA VETA PASS   PTSUNNY   57  37  47 SW8       30.54R THUNDER
SAGUACHE       NOT AVBL
$$

COZ035-036-038>040-090200-
...NORTHERN COLORADO FRONT RANGE...

CITY           SKY/WX    TMP DP  RH WIND       PRES   REMARKS
DENVER INTL AP PTSUNNY   79  57  46 S12       30.17S
DMNS CITY PARK   N/A     77  55  45 SE3G10    30.17R
AURORA         PTSUNNY   76  58  52 S9        30.20S
FRONT RANGE AP MOSUNNY   81  57  44 S12       30.18F
ERIE MUNI ARPT MOSUNNY   79  56  45 NW5       30.15S
BOULDER MUN AP MOSUNNY   79  54  41 CALM      30.16F
CENTENNIAL     PTSUNNY   75  54  47 SE9       30.21R
BROOMFIELD     PTSUNNY   79  55  44 VRB5      30.19F
FORT COLLINS   MOSUNNY   79  55  44 S6        30.13S
LONGMONT       SUNNY     83  55  37 CALM      30.17S
$$

COZ041-046-047-076>085-087-088-090200-
...PIKES PEAK/PALMER DIVIDE AND SOUTHERN FOOTHILLS...

CITY           SKY/WX    TMP DP  RH WIND       PRES   REMARKS
COLO. SPRINGS  CLOUDY    66  54  65 S14       30.26R
A. F. ACADEMY  CLOUDY    65  58  79 NE6       30.28R
ELLICOTT       NOT AVBL
FALCON         CLOUDY    66  55  66 S8        30.31R
FORT CARSON    MOSUNNY   65  56  72 SE13      30.22R THUNDER
LIMON          CLOUDY    75  55  49 SE14      30.20F
MONUMENT HILL  PTSUNNY   66  52  59 S12       30.30R
TRINIDAD       CLOUDY    80  50  34 SW9       30.21R
$$

COZ042>045-048>051-090-091-090200-
...NORTHEAST COLORADO...

CITY           SKY/WX    TMP DP  RH WIND       PRES   REMARKS
GREELEY ARPT   NOT AVBL
AKRON          SUNNY     76  56  49 SE10      30.17S
BURLINGTON     CLOUDY    76  58  53 E10       30.16S
WRAY           CLOUDY    82  51  34 E7        30.13S
STERLING       PTSUNNY   82  59  44 S6        30.12S
HOLYOKE        SUNNY     79  57  47 S5        30.14R
FORT MORGAN    SUNNY     79  54  42 E12G18    30.15S
$$

COZ086-089-092>099-090200-
...SOUTHEAST COLORADO...

CITY           SKY/WX    TMP DP  RH WIND       PRES   REMARKS
PUEBLO         TSTM      70  58  65 S10       30.15F
LA JUNTA       PTSUNNY   85  53  33 E13       30.13S
LAMAR          PTSUNNY   83  53  35 SE13      30.09F
SPRINGFIELD      N/A     78  52  40 SE9       30.16S
$$



USA.gov is the U.S. government's official web portal to all federal, state and local government web resources and services.